Location: München
(48.1351°N, 11.5820°E)
Time: 05:37:15
(UTC+02:00)

ISS - Pass Details

Date: 26 May 2021
Orbit: 417 x 422 km, 51.6° (Epoch: 13 June)

Event Time Altitude Azimuth Distance (km) Brightness Sun altitude
Rises 23:01:09 0° 292° (WNW) 2,367 1.0 -14.8°
Reaches altitude 10° 23:03:16 10° 289° (WNW) 1,502 -0.2 -14.9°
Maximum altitude 23:06:36 64° 208° (SSW) 467 -3.7 -15.2°
Enters shadow 23:07:47 36° 139° (SE) 689 -3.2 -15.3°
